[[{"header":{"parameterUnit":"m.s-1","parameterCategory":1,"la1":30.2991,"la2":30.254,"lo1":-89.0895,"lo2":-89.0444,"dy":0.0017,"dx":0.0017,"nx":28,"ny":28,"refTime":"2025-06-01T09:00:00:Z","depth":0,"parameterNumber":2,"parameterNumberName":"U-component_of_WINDS"},"data":[0,0,0,0,0,0,0,0,0,0,0,0,0,0,0,0,0,0,0,0,0,0,0,0,0,0,0,0,0,0,0,0,0,0,0,0,0,0,0,0,0,0,0,0,0,0,0,0,0,0,0,0,0,0,0,0,0,0,-1.6764,-1.6764,0,-1.673,-1.673,-1.6729,-1.6667,-1.6666,-1.6664,-1.6663,-1.6629,-1.6629,-1.6629,0,0,0,0,0,0,0,0,0,0,0,0,0,-1.6776,-1.6777,-1.6764,-1.6764,-1.6763,-1.673,-1.673,-1.6729,-1.6667,-1.6666,-1.6664,-1.6663,-1.6629,-1.6629,-1.6629,0,0,0,0,0,0,0,0,0,0,0,0,0,-1.676,-1.6777,-1.6764,-1.6728,-1.6725,-1.673,-1.673,-1.6729,-1.6667,-1.6665,-1.6664,-1.6662,-1.6628,-1.6629,-1.6629,-1.6667,0,0,-1.663,-1.663,0,0,0,0,0,0,0,0,-1.6761,-1.6759,-1.6734,-1.6731,-1.6727,-1.6701,-1.6721,-1.6708,-1.6668,-1.6689,-1.6663,-1.6661,-1.6654,-1.6652,-1.665,-1.6665,-1.6664,-1.663,-1.663,-1.663,-1.663,0,0,0,0,0,0,0,-1.6762,-1.676,-1.6751,-1.6734,-1.6729,-1.6714,-1.671,-1.6719,-1.6682,-1.6687,-1.6682,-1.6679,-1.6652,-1.665,-1.6649,-1.6663,-1.663,-1.663,-1.663,-1.6631,-1.671,-1.6712,0,0,0,0,0,0,-1.6768,-1.6762,-1.6752,-1.675,-1.674,-1.6716,-1.6711,-1.6711,-1.6682,-1.6676,-1.6681,-1.6677,-1.665,-1.6648,-1.6647,-1.669,-1.663,-1.6631,-1.6631,-1.6708,-1.671,-1.6713,0,0,0,0,0,0,-1.6769,-1.6768,-1.6753,-1.6755,-1.6751,-1.6717,-1.6718,-1.6711,-1.6709,-1.6677,-1.667,-1.6685,-1.6649,-1.6647,-1.6663,-1.6688,-1.6631,-1.6631,-1.6706,-1.6709,-1.6711,-1.6776,0,0,0,0,0,0,-1.6769,-1.6769,-1.6782,-1.6755,-1.6752,-1.6769,-1.672,-1.6712,-1.671,-1.6704,-1.668,-1.6674,-1.6647,-1.6663,-1.6663,-1.6687,-1.6631,-1.6703,-1.6707,-1.6711,-1.6772,-1.6781,-1.6789,0,0,0,0,0,-1.677,-1.6802,-1.6783,-1.6782,-1.6768,-1.6771,-1.6769,-1.6737,-1.6712,-1.6726,-1.6706,-1.6675,-1.6686,-1.6665,-1.6665,-1.669,-1.6702,-1.6706,-1.671,-1.6768,-1.6779,-1.6789,0,0,0,0,0,0,-1.6832,-1.6797,-1.6776,-1.68,-1.6789,-1.676,-1.6776,-1.675,-1.6746,-1.674,-1.6701,-1.6696,-1.6718,-1.6705,-1.6683,-1.6726,-1.6689,-1.6693,-1.6733,-1.6743,-1.6752,-1.6754,-1.6632,0,0,0,0,0,-1.6849,-1.6853,-1.6823,-1.6847,-1.6842,-1.6811,-1.6811,-1.6788,-1.6774,-1.6769,-1.675,-1.6739,-1.674,-1.6741,-1.674,-1.677,-1.6764,-1.6787,-1.6796,-1.6803,-1.6807,-1.6823,-1.6833,-1.6727,-1.6727,-1.6727,0,0,-1.6882,-1.6864,-1.6869,-1.6859,-1.6847,-1.6854,-1.6807,-1.6815,-1.682,-1.677,-1.6784,-1.6771,-1.6755,-1.6779,-1.6789,-1.6769,-1.6836,-1.6809,-1.6815,-1.6815,-1.6829,-1.6839,-1.6848,-1.673,-1.6729,-1.6729,0,0,-1.6947,-1.6934,-1.6952,-1.6942,-1.6926,-1.6905,-1.691,-1.6885,-1.6874,-1.6888,-1.6851,-1.6856,-1.6859,-1.6849,-1.6845,-1.6909,-1.6881,-1.691,-1.6955,-1.6971,-1.6979,-1.6986,-1.7009,-1.7018,-1.6914,-1.6915,-1.6915,0,-1.6991,-1.6999,-1.6965,-1.6977,-1.6973,-1.693,-1.6949,-1.6941,-1.6925,-1.6924,-1.6903,-1.6905,-1.6892,-1.6913,-1.6929,-1.6927,-1.6932,-1.6912,-1.6981,-1.6988,-1.6994,-1.7015,-1.7024,-1.6918,-1.6918,-1.6917,-1.6917,0,-1.7054,-1.7061,-1.7078,-1.7064,-1.7063,-1.7078,-1.7047,-1.705,-1.7028,-1.701,-1.7025,-1.7008,-1.7003,-1.7007,-1.6985,-1.7026,-1.7014,-1.6988,-1.695,-1.7008,-1.7028,-1.7036,-1.6923,-1.6922,-1.6921,-1.692,0,0,-1.7155,-1.7124,-1.7131,-1.7124,-1.7104,-1.7108,-1.7122,-1.7118,-1.7121,-1.7113,-1.7124,-1.7128,-1.7103,-1.7099,-1.7075,-1.709,-1.7142,-1.7061,-1.706,-1.7077,-1.7187,-1.7206,-1.7216,-1.7124,-1.7125,-1.7126,-1.7188,0,-1.7215,-1.7236,-1.7208,-1.7235,-1.7241,-1.7201,-1.7213,-1.7202,-1.7186,-1.7189,-1.7171,-1.7175,-1.7142,-1.7139,-1.7152,-1.7133,-1.7164,-1.7128,-1.7134,-1.7134,-1.7138,-1.7227,-1.7247,-1.7306,-1.7195,-1.7197,-1.7197,0,-1.7288,-1.7283,-1.7311,-1.729,-1.7292,-1.7303,-1.7297,-1.7301,-1.7288,-1.7275,-1.7271,-1.7244,-1.7257,-1.7222,-1.7239,-1.7216,-1.7217,-1.7208,-1.721,-1.7208,-1.7169,-1.7227,-1.7324,-1.7333,-1.7209,-1.7208,-1.7207,0,-1.7359,-1.7359,-1.7377,-1.7372,-1.7348,-1.7357,-1.7348,-1.7334,-1.7333,-1.7329,-1.7328,-1.7326,-1.7324,-1.7323,-1.7296,-1.7272,-1.7317,-1.7279,-1.7307,-1.7308,-1.7317,-1.7317,-1.7415,-1.7319,-1.7319,-1.7319,-1.7319,0,-1.7428,-1.7447,-1.7408,-1.7419,-1.7439,-1.7407,-1.7428,-1.7415,-1.7403,-1.7411,-1.7376,-1.7384,-1.7349,-1.7353,-1.7333,-1.7351,-1.735,-1.7341,-1.7335,-1.7344,-1.7345,-1.7343,-1.7338,-1.7321,-1.7321,-1.732,-1.732,0,-1.751,-1.7485,-1.7501,-1.7477,-1.7472,-1.7488,-1.7468,-1.7478,-1.746,-1.747,-1.7471,-1.7443,-1.7447,-1.7421,-1.742,-1.7406,-1.7434,-1.7421,-1.7438,-1.7434,-1.7464,-1.7461,-1.7563,-1.7575,-1.7472,-1.7473,-1.7474,0,-1.7556,-1.757,-1.7548,-1.7551,-1.7543,-1.7548,-1.7548,-1.7517,-1.7518,-1.7506,-1.7517,-1.7518,-1.7517,-1.7526,-1.7506,-1.7505,-1.7492,-1.7528,-1.7491,-1.75,-1.7492,-1.7492,-1.7493,-1.7535,-1.7537,-1.7538,-1.7538,0,-1.764,-1.7627,-1.7628,-1.7625,-1.7626,-1.7622,-1.7616,-1.762,-1.7587,-1.759,-1.7594,-1.7593,-1.7593,-1.7595,-1.759,-1.7581,-1.7555,-1.755,-1.7557,-1.7565,-1.7574,-1.757,-1.7458,-1.7548,-1.7547,-1.7546,-1.7546,-1.7545,-1.7705,-1.7716,-1.7702,-1.7705,-1.7697,-1.7693,-1.77,-1.7684,-1.7687,-1.7684,-1.7666,-1.7673,-1.7662,-1.7653,-1.7647,-1.7653,-1.7635,-1.7645,-1.7647,-1.765,-1.7655,-1.7574,-1.7652,-1.7651,-1.7651,-1.7651,-1.7651,0,-1.7787,-1.7777,-1.778,-1.7772,-1.7775,-1.775,-1.7742,-1.7746,-1.7753,-1.7745,-1.7745,-1.775,-1.7752,-1.7733,-1.7733,-1.7741,-1.7729,-1.7742,-1.7741,-1.7739,-1.767,-1.7665,-1.7752,-1.7752,-1.7752,-1.7752,-1.7752,-1.7752,-1.783,-1.7847,-1.7833,-1.7847,-1.7836,-1.7843,-1.7841,-1.7837,-1.783,-1.7837,-1.7839,-1.7827,-1.7814,-1.7813,-1.7814,-1.7809,-1.781,-1.7828,-1.7818,-1.7754,-1.7744,-1.7735,-1.7729,-1.7828,-1.7828,-1.7886,-1.7887,-1.7887]},{"header":{"parameterUnit":"m.s-1","parameterCategory":1,"la1":30.2991,"la2":30.254,"lo1":-89.0895,"lo2":-89.0444,"dy":0.0017,"dx":0.0017,"nx":28,"ny":28,"refTime":"2025-06-01T09:00:00:Z","depth":0,"parameterNumber":3,"parameterNumberName":"V-component_of_WINDS"},"data":[0,0,0,0,0,0,0,0,0,0,0,0,0,0,0,0,0,0,0,0,0,0,0,0,0,0,0,0,0,0,0,0,0,0,0,0,0,0,0,0,0,0,0,0,0,0,0,0,0,0,0,0,0,0,0,0,0,0,2.1098,2.1098,0,2.1079,2.1079,2.1079,2.1086,2.1086,2.1087,2.1087,2.1064,2.1063,2.1062,0,0,0,0,0,0,0,0,0,0,0,0,0,2.1138,2.1137,2.1098,2.1098,2.1098,2.1079,2.1079,2.1079,2.1086,2.1086,2.1087,2.1088,2.1065,2.1063,2.1062,0,0,0,0,0,0,0,0,0,0,0,0,0,2.112,2.1137,2.1098,2.1099,2.1099,2.1079,2.1079,2.1078,2.1086,2.1086,2.1087,2.1088,2.1065,2.1064,2.1062,2.1039,0,0,2.1057,2.1057,0,0,0,0,0,0,0,0,2.1121,2.1118,2.1099,2.1099,2.1099,2.1086,2.1084,2.1065,2.1086,2.1091,2.1087,2.1088,2.1071,2.1069,2.1064,2.1038,2.1037,2.1057,2.1056,2.1056,2.1055,0,0,0,0,0,0,0,2.1122,2.1119,2.109,2.1099,2.1099,2.1099,2.1098,2.1081,2.1077,2.109,2.1091,2.1089,2.1071,2.1065,2.1063,2.1037,2.1057,2.1056,2.1055,2.1054,2.0991,2.099,0,0,0,0,0,0,2.1124,2.112,2.1091,2.109,2.1112,2.1098,2.1096,2.1089,2.1077,2.1076,2.1088,2.1089,2.1067,2.1065,2.1062,2.1034,2.1056,2.1054,2.1053,2.0992,2.0991,2.099,0,0,0,0,0,0,2.1124,2.1121,2.1092,2.1105,2.1101,2.1097,2.1089,2.1088,2.1083,2.1076,2.1075,2.1083,2.1068,2.1064,2.1045,2.1034,2.1053,2.1052,2.0993,2.0991,2.099,2.0979,0,0,0,0,0,0,2.1125,2.1121,2.1113,2.1105,2.1101,2.1076,2.1088,2.1088,2.1081,2.1082,2.1071,2.107,2.1068,2.1047,2.1043,2.1032,2.1051,2.0994,2.0992,2.0991,2.098,2.0977,2.0975,0,0,0,0,0,2.1127,2.111,2.1113,2.1109,2.1091,2.1075,2.1073,2.1072,2.108,2.1071,2.1066,2.107,2.1036,2.1045,2.1041,2.1029,2.0994,2.0993,2.0991,2.0981,2.0978,2.0975,0,0,0,0,0,0,2.1115,2.1109,2.1112,2.1092,2.1084,2.1076,2.1065,2.1069,2.1058,2.1059,2.1058,2.1055,2.1035,2.103,2.1041,2.1006,2.1016,2.1013,2.101,2.1007,2.1004,2.1006,2.105,0,0,0,0,0,2.1111,2.1099,2.1094,2.1076,2.1073,2.107,2.1063,2.1063,2.1055,2.1051,2.1045,2.1036,2.1023,2.1015,2.1003,2.0979,2.0977,2.0969,2.0966,2.0964,2.0962,2.0949,2.0945,2.0984,2.0984,2.0985,0,0,2.11,2.1095,2.1088,2.1074,2.1068,2.1056,2.1067,2.1053,2.1044,2.1049,2.1031,2.1026,2.1015,2.0994,2.0984,2.0989,2.0951,2.0962,2.0961,2.0959,2.0947,2.0943,2.094,2.0983,2.0984,2.0984,0,0,2.1075,2.1071,2.1056,2.105,2.1042,2.104,2.1036,2.1028,2.1026,2.1008,2.1011,2.1,2.0978,2.097,2.0963,2.0936,2.0939,2.0932,2.0918,2.0906,2.0903,2.09,2.089,2.0887,2.093,2.093,2.093,0,2.1063,2.1046,2.1047,2.1034,2.1027,2.1033,2.1017,2.1011,2.0999,2.0994,2.1,2.0973,2.0966,2.0943,2.0936,2.0931,2.0926,2.0933,2.0904,2.0901,2.0898,2.0888,2.0885,2.0929,2.0929,2.0929,2.0929,0,2.1031,2.1019,2.1008,2.0997,2.0989,2.0975,2.0973,2.0965,2.0966,2.0964,2.0945,2.0937,2.0924,2.0919,2.0919,2.0895,2.0899,2.0904,2.0914,2.0894,2.0884,2.0881,2.0928,2.0928,2.0928,2.0929,0,0,2.0997,2.0988,2.0984,2.0979,2.0971,2.0961,2.0946,2.0935,2.0927,2.0919,2.0906,2.0888,2.0893,2.0885,2.0885,2.0874,2.0853,2.0881,2.0881,2.0875,2.0826,2.0821,2.0817,2.0855,2.0854,2.0854,2.0827,0,2.0971,2.0947,2.0948,2.0925,2.0914,2.0919,2.0907,2.0899,2.0897,2.0886,2.0882,2.0869,2.0877,2.0873,2.0862,2.0858,2.0843,2.086,2.0842,2.0841,2.0844,2.0812,2.0808,2.0782,2.0823,2.0822,2.0822,0,2.0937,2.0929,2.0905,2.0899,2.0894,2.0883,2.0872,2.0862,2.0854,2.0852,2.0844,2.0846,2.083,2.0842,2.082,2.0831,2.0824,2.0821,2.082,2.0817,2.083,2.0809,2.0774,2.077,2.0816,2.0817,2.0817,0,2.0915,2.0897,2.0881,2.0877,2.0869,2.0861,2.0857,2.085,2.0842,2.0833,2.0828,2.0816,2.0809,2.08,2.0798,2.0806,2.0776,2.0787,2.0773,2.0773,2.0766,2.0766,2.0729,2.0762,2.0762,2.0762,2.0762,0,2.0885,2.087,2.0871,2.086,2.0844,2.0845,2.0828,2.0825,2.0818,2.0807,2.0811,2.08,2.0798,2.0787,2.0785,2.0767,2.0764,2.0762,2.0761,2.0761,2.0761,2.0756,2.0757,2.0761,2.0762,2.0762,2.0762,0,2.0857,2.0857,2.0839,2.0833,2.0832,2.0819,2.0814,2.0804,2.0802,2.0788,2.0784,2.0781,2.0767,2.0765,2.0748,2.0747,2.0725,2.0727,2.0728,2.0728,2.0715,2.0716,2.0673,2.0667,2.0704,2.0704,2.0704,0,2.0838,2.0827,2.082,2.0813,2.081,2.0798,2.0792,2.0792,2.0785,2.0775,2.0766,2.0753,2.0743,2.0721,2.0716,2.0703,2.0704,2.069,2.0702,2.0703,2.0704,2.0704,2.0703,2.0687,2.0687,2.0687,2.0686,0,2.0804,2.0804,2.0795,2.0785,2.0777,2.077,2.0762,2.0756,2.0756,2.0747,2.0734,2.0726,2.071,2.0697,2.0685,2.068,2.0683,2.0683,2.0679,2.0678,2.0679,2.0678,2.0721,2.0684,2.0684,2.0684,2.0684,2.0684,2.0779,2.0769,2.0764,2.0753,2.0748,2.0741,2.0731,2.0729,2.0718,2.0706,2.0707,2.0693,2.0685,2.0669,2.0663,2.0651,2.0655,2.065,2.0648,2.0647,2.0645,2.0682,2.0648,2.0649,2.0649,2.0649,2.0649,0,2.0745,2.0742,2.0732,2.0722,2.0714,2.0719,2.0711,2.0703,2.0691,2.0684,2.0674,2.0659,2.0646,2.0641,2.0628,2.062,2.0621,2.0616,2.0617,2.0615,2.0642,2.0647,2.0616,2.0616,2.0616,2.0616,2.0616,2.0616,2.0726,2.071,2.071,2.0691,2.0688,2.0675,2.067,2.0663,2.0658,2.0641,2.0631,2.0629,2.0622,2.0609,2.0598,2.0596,2.0591,2.0586,2.0585,2.061,2.0613,2.0617,2.0621,2.0585,2.0585,2.0559,2.0559,2.0559]}]]